FW9533 Weather Reports


time (UTC)temp
C
wind
direction
speed
KPH
gust
KPH
rain 1hr
cm
rain 24hr
cm
rain mn
cm
humidity
%
barometer
mb
20260509161852 12 246 17.7 20.9 0.00 0.00 0.00 48 1000.8
20260509161348 12 272 12.9 12.9 0.00 0.00 0.00 48 1000.4
20260509160844 12 244 14.5 22.5 0.00 0.00 0.00 49 1000.6
20260509160340 12 265 9.7 17.7 0.00 0.00 0.00 50 1000.5
20260509155835 11 269 19.3 22.5 0.00 0.00 0.00 52 1000.6
20260509155332 11 269 14.5 17.7 0.00 0.00 0.00 53 1000.7
20260509154828 11 279 12.9 17.7 0.00 0.00 0.00 54 1000.7
20260509154325 11 284 11.3 16.1 0.00 0.00 0.00 54 1000.5
20260509153822 11 274 11.3 12.9 0.00 0.00 0.00 57 1000.4
20260509153318 11 256 12.9 20.9 0.00 0.00 0.00 58 1000.5
20260509152815 11 227 14.5 22.5 0.00 0.00 0.00 59 1000.1
20260509152311 11 276 8.0 14.5 0.00 0.00 0.00 62 999.9
20260509151809 11 277 14.5 22.5 0.00 0.00 0.00 61 1000.2
20260509151305 10 230 14.5 17.7 0.00 0.00 0.00 64 1000.0
20260509150804 10 215 12.9 17.7 0.00 0.00 0.00 64 999.9
20260509150301 10 242 9.7 22.5 0.00 0.00 0.00 66 1000.2
20260509145758 10 247 20.9 25.7 0.00 0.00 0.00 66 1000.2
20260509145257 10 263 16.1 29.0 0.00 0.00 0.00 68 1000.1
20260509144754 11 236 11.3 20.9 0.00 0.00 0.00 65 1000.1
20260509144251 11 255 22.5 27.4 0.00 0.00 0.00 64 999.8
20260509143748 11 269 16.1 29.0 0.00 0.00 0.00 63 1000.0
20260509143246 11 255 22.5 33.8 0.00 0.00 0.00 63 1000.0
20260509142741 11 288 17.7 25.7 0.00 0.00 0.00 63 1000.0
20260509142238 11 266 14.5 33.8 0.00 0.00 0.00 64 999.5
20260509141734 12 257 9.7 14.5 0.00 0.00 0.00 65 998.7
20260509141231 12 252 16.1 22.5 0.00 0.00 0.00 64 998.7
20260509140728 12 273 12.9 16.1 0.00 0.00 0.00 67 998.5
20260509140225 12 217 14.5 17.7 0.00 0.00 0.00 66 998.3
20260509135722 12 258 16.1 17.7 0.00 0.00 0.00 66 998.4
20260509135220 12 233 16.1 22.5 0.00 0.00 0.00 66 998.4
20260509134717 13 260 17.7 24.1 0.00 0.00 0.00 65 998.2
20260509134214 13 253 17.7 22.5 0.00 0.00 0.00 65 998.2
20260509133711 13 232 16.1 17.7 0.00 0.00 0.00 68 997.9
20260509133208 13 249 9.7 16.1 0.00 0.00 0.00 69 997.7
20260509132707 13 221 14.5 17.7 0.00 0.00 0.00 69 997.8
20260509132205 13 288 11.3 20.9 0.00 0.00 0.00 70 997.8
20260509131701 13 225 9.7 16.1 0.00 0.00 0.00 71 997.7
20260509131158 13 226 11.3 14.5 0.00 0.00 0.00 72 997.6
20260509130653 13 223 17.7 20.9 0.00 0.00 0.00 72 997.6
20260509130150 13 250 16.1 17.7 0.00 0.00 0.00 72 997.7
20260509125646 13 239 12.9 22.5 0.00 0.00 0.00 72 997.6
20260509125143 12 238 9.7 12.9 0.00 0.00 0.00 74 997.6
20260509124640 12 233 11.3 17.7 0.00 0.00 0.00 74 997.7
20260509124137 12 241 16.1 22.5 0.00 0.00 0.00 74 997.5
20260509123635 12 224 14.5 17.7 0.00 0.00 0.00 73 997.5
20260509123131 12 232 12.9 22.5 0.00 0.00 0.00 74 997.8
20260509122627 12 224 17.7 20.9 0.00 0.00 0.00 75 997.5
20260509122124 12 246 16.1 27.4 0.00 0.00 0.00 75 997.7
20260509121621 12 218 16.1 17.7 0.00 0.00 0.00 76 997.7
20260509121119 11 217 17.7 24.1 0.00 0.00 0.00 77 997.7
20260509120616 11 228 14.5 32.2 0.00 0.00 0.00 76 997.5
20260509120115 11 223 17.7 24.1 0.00 0.00 0.00 76 997.3
20260509115612 11 222 14.5 24.1 0.00 0.00 0.00 75 997.7
20260509115109 11 232 14.5 20.9 0.00 0.00 0.00 75 997.7
20260509114607 11 225 12.9 17.7 0.00 0.00 0.00 75 997.8
20260509114106 11 229 11.3 22.5 0.00 0.00 0.00 75 997.6
20260509113603 12 215 8.0 24.1 0.00 0.00 0.00 74 997.7
20260509113101 12 224 14.5 20.9 0.00 0.00 0.00 73 997.5
20260509112557 12 229 8.0 24.1 0.00 0.00 0.00 73 997.7
20260509112054 12 213 16.1 24.1 0.00 0.00 0.00 72 997.8
20260509111551 12 230 11.3 17.7 0.00 0.00 0.00 71 997.9
20260509111048 12 218 11.3 29.0 0.00 0.00 0.00 70 998.2
20260509110545 12 204 17.7 22.5 0.00 0.00 0.00 69 997.7
20260509110042 12 233 17.7 24.1 0.00 0.00 0.00 69 997.7
20260509105541 12 201 17.7 22.5 0.00 0.00 0.00 68 997.6
20260509105038 12 218 12.9 25.7 0.00 0.00 0.00 68 997.6
20260509104535 12 169 9.7 24.1 0.00 0.00 0.00 68 997.5
20260509104031 12 239 8.0 16.1 0.00 0.00 0.00 69 997.7
20260509103529 12 224 19.3 24.1 0.00 0.00 0.00 68 998.2
20260509103027 12 218 19.3 32.2 0.00 0.00 0.00 67 998.2
20260509102524 12 215 17.7 20.9 0.00 0.00 0.00 67 998.3
20260509102021 12 223 11.3 17.7 0.00 0.00 0.00 66 998.0
20260509101517 12 242 11.3 17.7 0.00 0.00 0.00 65 998.0
20260509101014 12 219 6.4 16.1 0.00 0.00 0.00 65 998.0
20260509100512 11 213 9.7 12.9 0.00 0.00 0.00 65 998.0
20260509100009 11 223 6.4 9.7 0.00 0.00 0.00 66 998.0
20260509095505 11 218 1.6 3.2 0.00 0.00 0.00 66 998.2
20260509095003 11 202 3.2 4.8 0.00 0.00 0.00 65 998.3
20260509094459 11 227 3.2 3.2 0.00 0.00 0.00 65 998.6
20260509093956 11 206 4.8 4.8 0.00 0.00 0.00 64 998.7
20260509093454 10 115 4.8 11.3 0.00 0.00 0.00 64 998.5
20260509092951 10 68 1.6 4.8 0.00 0.00 0.00 65 998.7
20260509092449 11 103 0.0 1.6 0.00 0.00 0.00 61 999.0
20260509091948 12 63 0.0 0.0 0.00 0.00 0.00 60 998.9
20260509091444 12 217 3.2 4.8 0.00 0.00 0.00 59 999.0
20260509090941 12 224 4.8 4.8 0.00 0.00 0.00 58 998.9
20260509090439 12 222 4.8 9.7 0.00 0.00 0.00 57 999.1
20260509085936 12 157 3.2 9.7 0.00 0.00 0.00 57 999.1
20260509085433 12 192 4.8 8.0 0.00 0.00 0.00 57 999.2
20260509084929 12 209 6.4 12.9 0.00 0.00 0.00 56 999.2
20260509084426 12 214 9.7 14.5 0.00 0.00 0.00 55 999.4
20260509083924 12 224 6.4 11.3 0.00 0.00 0.00 54 999.5
20260509083421 12 220 6.4 12.9 0.00 0.00 0.00 53 999.6
20260509082917 12 227 11.3 20.9 0.00 0.00 0.00 51 999.5
20260509082415 12 232 14.5 17.7 0.00 0.00 0.00 50 999.9
20260509081911 12 233 12.9 22.5 0.00 0.00 0.00 49 999.8
20260509081409 12 221 12.9 16.1 0.00 0.00 0.00 48 1000.1
20260509080906 12 231 14.5 16.1 0.00 0.00 0.00 47 1000.0
20260509080404 12 221 9.7 14.5 0.00 0.00 0.00 46 1000.1
20260509075902 12 210 8.0 12.9 0.00 0.00 0.00 46 1000.0
20260509075358 12 231 11.3 14.5 0.00 0.00 0.00 45 999.9
20260509074856 12 206 14.5 17.7 0.00 0.00 0.00 43 1000.1
20260509074354 12 231 9.7 12.9 0.00 0.00 0.00 42 999.9
20260509073849 12 217 11.3 12.9 0.00 0.00 0.00 41 1000.1
20260509073346 12 226 11.3 11.3 0.00 0.00 0.00 40 1000.1
20260509072843 13 216 12.9 16.1 0.00 0.00 0.00 39 1000.2
20260509072339 13 227 9.7 14.5 0.00 0.00 0.00 40 1000.4
20260509071836 13 229 4.8 17.7 0.00 0.00 0.00 39 1000.6
20260509071333 13 217 11.3 16.1 0.00 0.00 0.00 39 1000.3
20260509070830 13 227 12.9 16.1 0.00 0.00 0.00 38 1000.7
20260509070327 13 185 11.3 17.7 0.00 0.00 0.00 38 1000.9
20260509065823 13 221 14.5 20.9 0.00 0.00 0.00 39 1000.7
20260509065319 13 202 8.0 20.9 0.00 0.00 0.00 39 1000.8
20260509064815 13 234 12.9 20.9 0.00 0.00 0.00 39 1000.9
20260509064313 12 190 4.8 16.1 0.00 0.00 0.00 44 1001.2
20260509063811 12 225 11.3 14.5 0.00 0.00 0.00 44 1001.3
20260509063307 12 220 9.7 12.9 0.00 0.00 0.00 45 1001.4
20260509062804 12 230 8.0 14.5 0.00 0.00 0.00 44 1001.6
20260509062301 12 234 11.3 12.9 0.00 0.00 0.00 43 1001.7
20260509061758 12 229 14.5 20.9 0.00 0.00 0.00 43 1001.8
20260509061256 12 205 14.5 22.5 0.00 0.00 0.00 43 1001.9
20260509060753 12 206 9.7 11.3 0.00 0.00 0.00 43 1001.8
20260509060250 12 207 4.8 9.7 0.00 0.00 0.00 42 1001.9
20260509055745 12 215 11.3 16.1 0.00 0.00 0.00 41 1002.1
20260509055241 12 225 11.3 17.7 0.00 0.00 0.00 40 1001.9
20260509054738 12 223 11.3 14.5 0.00 0.00 0.00 40 1001.9
20260509054235 12 209 6.4 14.5 0.00 0.00 0.00 39 1002.1
20260509053733 13 214 6.4 11.3 0.00 0.00 0.00 40 1002.0
20260509053230 13 219 8.0 14.5 0.00 0.00 0.00 39 1002.1
20260509052728 13 202 9.7 16.1 0.00 0.00 0.00 39 1002.1
20260509052225 13 182 9.7 17.7 0.00 0.00 0.00 40 1002.1
20260509051723 13 221 11.3 16.1 0.00 0.00 0.00 40 1002.2
20260509051220 13 225 8.0 14.5 0.00 0.00 0.00 42 1002.3
20260509050717 13 187 8.0 14.5 0.00 0.00 0.00 45 1002.4
20260509050213 12 210 9.7 11.3 0.00 0.00 0.00 48 1002.4
20260509045711 12 233 4.8 4.8 0.00 0.00 0.00 51 1002.5
20260509045208 12 217 6.4 8.0 0.00 0.00 0.00 49 1002.8
20260509044705 12 230 8.0 9.7 0.00 0.00 0.00 48 1002.7
20260509044203 13 220 8.0 11.3 0.00 0.00 0.00 47 1002.7
20260509043659 13 213 12.9 22.5 0.00 0.00 0.00 44 1002.9
20260509043154 13 212 14.5 20.9 0.00 0.00 0.00 42 1003.0
20260509042651 13 221 11.3 14.5 0.00 0.00 0.00 42 1003.1
20260509042147 12 220 8.0 9.7 0.00 0.00 0.00 45 1003.2
20260509041644 12 218 8.0 11.3 0.00 0.00 0.00 46 1003.6
20260509041141 12 227 8.0 9.7 0.00 0.00 0.00 46 1003.5
20260509040640 11 222 9.7 11.3 0.00 0.00 0.00 49 1003.5
20260509040136 10 219 4.8 4.8 0.00 0.00 0.00 62 1003.2
20260509035633 11 244 3.2 3.2 0.00 0.00 0.00 55 1003.6
20260509035130 11 239 1.6 3.2 0.00 0.00 0.00 55 1003.5
20260509034627 10 224 3.2 3.2 0.00 0.00 0.00 54 1003.7
20260509034125 10 232 3.2 4.8 0.00 0.00 0.00 59 1004.0
20260509033621 10 222 1.6 3.2 0.00 0.00 0.00 58 1004.1
20260509033118 10 222 1.6 3.2 0.00 0.00 0.00 57 1003.8
20260509032616 10 249 1.6 3.2 0.00 0.00 0.00 58 1004.0
20260509032112 10 257 1.6 1.6 0.00 0.00 0.00 55 1004.0
20260509031610 10 253 0.0 0.0 0.00 0.00 0.00 59 1003.9
20260509031108 10 250 3.2 3.2 0.00 0.00 0.00 55 1004.0
20260509030606 9 260 1.6 3.2 0.00 0.00 0.00 66 1004.2
20260509025558 7 340 0.0 0.0 0.00 0.00 0.00 78 1004.3
20260509025054 7 342 0.0 0.0 0.00 0.00 0.00 80 1004.1
20260509024550 8 342 0.0 0.0 0.00 0.00 0.00 81 1004.2
20260509024046 8 342 0.0 0.0 0.00 0.00 0.00 80 1004.1
20260509023544 8 342 0.0 0.0 0.00 0.00 0.00 79 1004.3
20260509023041 8 342 0.0 0.0 0.00 0.00 0.00 80 1004.4
20260509022537 8 342 0.0 0.0 0.00 0.00 0.00 74 1004.2
20260509022035 8 342 0.0 0.0 0.00 0.00 0.00 76 1004.3
20260509021532 8 343 0.0 0.0 0.00 0.00 0.00 72 1004.5
20260509021029 8 343 0.0 0.0 0.00 0.00 0.00 71 1004.3
20260509020527 8 343 0.0 0.0 0.00 0.00 0.00 73 1004.4
20260509020023 8 342 0.0 0.0 0.00 0.00 0.00 71 1004.5
20260509015523 8 342 1.6 3.2 0.00 0.00 0.00 70 1004.4
20260509015020 10 346 1.6 4.8 0.00 0.00 0.00 67 1004.4
20260509014516 11 340 3.2 3.2 0.00 0.00 0.00 57 1004.2
20260509014012 12 193 0.0 0.0 0.00 0.00 0.00 45 1004.3
20260509013510 12 211 1.6 1.6 0.00 0.00 0.00 43 1004.2
20260509013005 13 207 1.6 3.2 0.00 0.00 0.00 42 1004.3
20260509012502 13 202 3.2 3.2 0.00 0.00 0.00 41 1004.1
20260509011959 13 223 1.6 3.2 0.00 0.00 0.00 45 1004.2
20260509011456 13 218 3.2 3.2 0.00 0.00 0.00 42 1004.2
20260509010954 13 219 1.6 3.2 0.00 0.00 0.00 41 1004.1
20260509010451 13 227 3.2 4.8 0.00 0.00 0.00 42 1004.5
20260509005948 14 225 4.8 8.0 0.00 0.00 0.00 42 1004.3
20260509005446 14 217 6.4 11.3 0.00 0.00 0.00 40 1004.4
20260509004946 14 238 4.8 8.0 0.00 0.00 0.00 41 1004.4
20260509004443 14 245 4.8 9.7 0.00 0.00 0.00 40 1004.3
20260509003941 14 230 6.4 11.3 0.00 0.00 0.00 39 1004.4
20260509003438 14 218 4.8 9.7 0.00 0.00 0.00 39 1004.5
20260509002934 14 224 9.7 11.3 0.00 0.00 0.00 38 1004.2
20260509002433 14 218 8.0 11.3 0.00 0.00 0.00 39 1004.2
20260509001929 14 217 8.0 11.3 0.00 0.00 0.00 39 1004.3
20260509001426 15 237 8.0 12.9 0.00 0.00 0.00 37 1004.3
20260509000924 15 225 8.0 11.3 0.00 0.00 0.00 39 1004.3
20260509000422 15 225 12.9 14.5 0.00 0.00 0.00 36 1004.3
20260508235917 15 249 11.3 14.5 0.00 0.00 0.00 36 1004.4
20260508235415 15 231 8.0 12.9 0.00 0.00 0.00 37 1004.4
20260508234911 15 216 9.7 11.3 0.00 0.00 0.00 37 1004.5
20260508234409 15 221 16.1 20.9 0.00 0.00 0.00 35 1004.7
20260508233906 15 239 11.3 17.7 0.00 0.00 0.00 36 1004.6
20260508233405 15 205 11.3 16.1 0.00 0.00 0.00 35 1004.5
20260508232902 15 222 17.7 22.5 0.00 0.00 0.00 35 1004.7
20260508232358 15 231 12.9 17.7 0.00 0.00 0.00 35 1004.5
20260508231856 15 217 17.7 22.5 0.00 0.00 0.00 35 1004.7
20260508231352 15 229 14.5 17.7 0.00 0.00 0.00 35 1004.7
20260508230849 15 253 8.0 17.7 0.00 0.00 0.00 36 1004.7
20260508230346 15 258 9.7 12.9 0.00 0.00 0.00 35 1004.7
20260508225844 15 251 14.5 16.1 0.00 0.00 0.00 34 1004.6
20260508225340 15 253 14.5 17.7 0.00 0.00 0.00 35 1004.7
20260508224838 15 273 9.7 17.7 0.00 0.00 0.00 37 1004.8
20260508224335 16 239 11.3 25.7 0.00 0.00 0.00 34 1004.9
20260508223833 16 225 8.0 14.5 0.00 0.00 0.00 34 1004.7
20260508223330 16 209 11.3 27.4 0.00 0.00 0.00 35 1004.6
20260508222827 16 231 16.1 17.7 0.00 0.00 0.00 34 1004.8
20260508222324 16 233 17.7 24.1 0.00 0.00 0.00 33 1004.8
20260508221821 17 236 14.5 16.1 0.00 0.00 0.00 33 1004.7
20260508221316 17 239 16.1 24.1 0.00 0.00 0.00 32 1004.6
20260508220813 16 260 11.3 20.9 0.00 0.00 0.00 34 1004.7
20260508220309 16 222 8.0 17.7 0.00 0.00 0.00 34 1004.7
20260508215806 16 237 12.9 17.7 0.00 0.00 0.00 34 1005.0
20260508215306 16 245 11.3 17.7 0.00 0.00 0.00 31 1004.9
20260508214800 16 223 9.7 20.9 0.00 0.00 0.00 33 1005.0
20260508214257 16 245 11.3 17.7 0.00 0.00 0.00 33 1005.0
20260508213753 16 250 12.9 17.7 0.00 0.00 0.00 33 1004.9
20260508213250 16 282 14.5 25.7 0.00 0.00 0.00 33 1005.1
20260508212747 16 230 16.1 22.5 0.00 0.00 0.00 32 1005.1
20260508212243 16 224 11.3 22.5 0.00 0.00 0.00 32 1005.1
20260508211739 16 223 14.5 25.7 0.00 0.00 0.00 33 1005.1
20260508211235 16 217 19.3 32.2 0.00 0.00 0.00 33 1005.1
20260508210732 16 236 19.3 25.7 0.00 0.00 0.00 32 1005.2
20260508210229 16 276 11.3 22.5 0.00 0.00 0.00 32 1005.3
20260508205726 16 270 20.9 25.7 0.00 0.00 0.00 32 1005.4
20260508205222 16 242 9.7 22.5 0.00 0.00 0.00 32 1005.1
20260508204718 16 232 22.5 27.4 0.00 0.00 0.00 33 1005.2
20260508204215 16 264 14.5 22.5 0.00 0.00 0.00 33 1005.4
20260508203711 16 263 17.7 24.1 0.00 0.00 0.00 33 1005.5
20260508203208 16 291 8.0 16.1 0.00 0.00 0.00 33 1005.6
20260508202704 16 239 16.1 27.4 0.00 0.00 0.00 31 1005.6
20260508202201 16 240 16.1 16.1 0.00 0.00 0.00 32 1005.6
20260508201657 16 214 14.5 22.5 0.00 0.00 0.00 33 1005.8
20260508201154 16 216 14.5 20.9 0.00 0.00 0.00 33 1005.7
20260508200651 16 237 12.9 22.5 0.00 0.00 0.00 32 1005.7
20260508200147 16 295 17.7 25.7 0.00 0.00 0.00 36 1005.5
20260508195644 15 257 17.7 24.1 0.00 0.00 0.00 35 1006.1
20260508195141 16 268 19.3 35.4 0.00 0.00 0.00 35 1006.0
20260508194637 16 261 14.5 32.2 0.00 0.00 0.00 35 1006.1
20260508194134 16 247 14.5 25.7 0.00 0.00 0.00 36 1006.1
20260508193631 16 227 12.9 24.1 0.00 0.00 0.00 34 1006.4
20260508193128 16 206 12.9 22.5 0.00 0.00 0.00 34 1006.3
20260508192624 15 256 14.5 27.4 0.00 0.00 0.00 33 1006.3
20260508192122 15 225 19.3 25.7 0.00 0.00 0.00 35 1006.7
20260508191618 15 221 19.3 32.2 0.00 0.00 0.00 34 1006.6
20260508191115 15 288 17.7 25.7 0.00 0.00 0.00 36 1006.7
20260508190613 15 232 20.9 32.2 0.00 0.00 0.00 35 1006.7
20260508190109 15 279 17.7 24.1 0.00 0.00 0.00 37 1006.8
20260508185606 15 245 17.7 32.2 0.00 0.00 0.00 35 1006.7
20260508185103 15 246 14.5 25.7 0.00 0.00 0.00 37 1006.7
20260508184601 15 269 24.1 33.8 0.00 0.00 0.00 35 1007.0
20260508184057 15 236 22.5 38.6 0.00 0.00 0.00 34 1006.8
20260508183554 15 265 16.1 27.4 0.00 0.00 0.00 36 1007.0
20260508183050 15 243 20.9 29.0 0.00 0.00 0.00 35 1006.9
20260508182546 14 291 20.9 33.8 0.00 0.00 0.00 36 1006.9
20260508182044 15 257 24.1 37.0 0.00 0.00 0.00 35 1007.0
20260508181538 15 258 19.3 29.0 0.00 0.00 0.00 35 1007.0
20260508181036 14 240 16.1 25.7 0.00 0.00 0.00 37 1007.0
20260508180532 14 237 22.5 27.4 0.00 0.00 0.00 35 1007.0
20260508180029 15 227 20.9 33.8 0.00 0.00 0.00 34 1007.0
20260508175525 15 267 11.3 20.9 0.00 0.00 0.00 34 1007.4
20260508175023 14 220 11.3 22.5 0.00 0.00 0.00 35 1007.1
20260508174520 15 249 14.5 24.1 0.00 0.00 0.00 35 1007.2
20260508174017 14 259 19.3 33.8 0.00 0.00 0.00 35 1007.4
20260508173514 15 294 20.9 27.4 0.00 0.00 0.00 34 1007.6
20260508173010 14 264 19.3 27.4 0.00 0.00 0.00 35 1007.5
20260508172507 14 267 24.1 33.8 0.00 0.00 0.00 35 1007.7
20260508172004 14 220 20.9 25.7 0.00 0.00 0.00 34 1007.6
20260508171500 14 253 22.5 27.4 0.00 0.00 0.00 35 1008.0
20260508170956 15 223 14.5 27.4 0.00 0.00 0.00 34 1007.5
20260508170454 14 235 14.5 27.4 0.00 0.00 0.00 34 1008.0
20260508165951 15 252 12.9 24.1 0.00 0.00 0.00 34 1007.8
20260508165449 14 237 24.1 35.4 0.00 0.00 0.00 34 1007.7
20260508164944 14 205 22.5 35.4 0.00 0.00 0.00 35 1008.0
20260508164442 13 249 17.7 33.8 0.00 0.00 0.00 34 1008.0
20260508163938 14 227 30.6 35.4 0.00 0.00 0.00 35 1007.9
20260508163437 14 246 19.3 25.7 0.00 0.00 0.00 36 1008.0
20260508162932 14 236 11.3 22.5 0.00 0.00 0.00 36 1008.0
20260508162430 13 243 14.5 29.0 0.00 0.00 0.00 37 1008.0